Temperature
9 8 8 7 7 7 6 6 5 4 3 3 3 3 3 2 2 1 0 -1 -2 -2 -2 -3 -3 -3 -3 -3 -3 -4 -4 -4 -4 -4 -5 -5 -5 -5 -5 -5 -5 -5 -5
8 7 7 7 6 6 5 5 4 3 3 2 2 2 2 1 1 -0 -1 -2 -3 -3 -3 -4 -4 -4 -4 -4 -4 -4 -5 -5 -5 -5 -6 -6 -6 -6 -5 -5 -5 -5 -5
7 6 6 6 5 5 4 3 3 2 2 2 2 1 1 0 -1 -2 -3 -3 -4 -4 -4 -5 -5 -5 -5 -5 -5 -5 -5 -6 -6 -6 -6 -6 -6 -6 -6 -6 -6 -6 -6
6 6 5 5 4 4 3 2 2 2 2 1 1 1 -0 -1 -2 -3 -4 -4 -4 -5 -5 -6 -6 -6 -6 -6 -6 -6 -6 -6 -6 -6 -7 -7 -7 -6 -6 -6 -6 -7 -7
5 5 5 4 3 3 2 2 1 1 1 1 0 -1 -1 -2 -3 -4 -4 -5 -6 -6 -6 -6 -7 -7 -6 -6 -6 -6 -6 -6 -7 -7 -7 -7 -7 -7 -7 -7 -7 -7 -7
5 4 4 3 3 2 1 1 1 1 0 -0 -1 -2 -2 -3 -4 -5 -5 -6 -6 -6 -7 -7 -7 -7 -7 -7 -7 -7 -7 -7 -7 -7 -7 -8 -8 -8 -8 -8 -8 -8 -8
4 4 3 2 2 1 1 0 0 -0 -1 -1 -2 -2 -3 -4 -5 -5 -6 -6 -6 -7 -7 -8 -8 -8 -7 -7 -7 -7 -7 -7 -7 -8 -8 -8 -8 -8 -9 -8 -8 -8 -8
3 3 2 2 1 1 0 0 -0 -1 -1 -2 -2 -3 -4 -5 -5 -6 -6 -6 -7 -7 -8 -8 -8 -8 -8 -8 -8 -7 -8 -8 -8 -8 -9 -9 -9 -9 -9 -9 -9 -9 -9
3 2 1 1 0 0 -0 -0 -1 -1 -2 -2 -3 -4 -5 -5 -6 -6 -6 -7 -7 -8 -8 -8 -8 -8 -8 -8 -8 -8 -8 -8 -9 -9 -9 -9 -9 -9 -9 -9 -9 -9 -9
2 1 1 0 -0 -0 -1 -1 -1 -2 -3 -3 -4 -5 -6 -6 -6 -7 -7 -7 -8 -8 -8 -8 -8 -8 -8 -8 -8 -8 -9 -9 -9 -9 -10 -10 -10 -10 -10 -10 -10 -10 -10
1 1 0 -0 -0 -1 -1 -2 -2 -3 -4 -4 -5 -5 -6 -7 -7 -7 -8 -8 -8 -8 -9 -9 -9 -9 -9 -8 -8 -9 -9 -9 -9 -10 -10 -11 -10 -11 -10 -10 -10 -10 -10
0 0 -0 -0 -1 -1 -2 -2 -3 -4 -4 -5 -6 -6 -7 -7 -8 -8 -8 -8 -8 -9 -9 -9 -9 -9 -9 -9 -9 -10 -10 -10 -11 -11 -11 -11 -11 -11 -11 -10 -10 -10 -10
0 -0 -1 -1 -1 -2 -3 -3 -4 -5 -5 -6 -6 -7 -8 -8 -9 -9 -9 -9 -9 -9 -9 -9 -9 -9 -9 -10 -10 -10 -10 -11 -11 -11 -11 -11 -11 -11 -11 -10 -10 -9 -9
-0 -1 -1 -1 -2 -2 -3 -4 -5 -6 -6 -7 -7 -8 -8 -9 -9 -9 -9 -9 -9 -10 -10 -10 -10 -10 -11 -11 -11 -11 -11 -12 -11 -11 -12 -12 -11 -11 -10 -10 -10 -9 -9
-1 -1 -2 -2 -3 -3 -4 -5 -5 -6 -7 -8 -8 -8 -9 -9 -9 -9 -9 -9 -10 -10 -9 -10 -11 -11 -12 -12 -12 -12 -12 -12 -12 -12 -12 -12 -11 -11 -10 -10 -10 -9 -9
-1 -2 -2 -3 -3 -4 -5 -5 -5 -7 -8 -8 -8 -9 -9 -9 -9 -9 -9 -10 -10 -10 -10 -11 -12 -12 -12 -12 -12 -12 -12 -12 -12 -12 -12 -11 -11 -11 -10 -10 -10 -9 -9
-2 -2 -3 -4 -4 -5 -6 -6 -7 -7 -8 -9 -9 -9 -9 -9 -9 -10 -10 -10 -11 -11 -12 -12 -12 -12 -12 -12 -12 -12 -12 -12 -12 -12 -11 -11 -11 -11 -10 -10 -10 -9 -9
-3 -3 -4 -4 -5 -6 -6 -7 -8 -9 -9 -9 -9 -10 -10 -10 -10 -11 -11 -11 -12 -12 -12 -12 -13 -13 -13 -13 -13 -12 -12 -12 -12 -11 -11 -11 -11 -10 -10 -10 -10 -10 -9
-3 -4 -5 -5 -6 -6 -7 -8 -9 -9 -10 -10 -10 -10 -10 -11 -11 -11 -11 -12 -13 -13 -13 -13 -13 -13 -13 -13 -13 -13 -12 -12 -11 -11 -10 -10 -10 -10 -10 -9 -9 -9 -9
-4 -5 -6 -6 -7 -7 -8 -9 -9 -10 -10 -10 -11 -11 -11 -11 -11 -12 -12 -13 -13 -13 -13 -13 -13 -13 -13 -13 -13 -13 -12 -12 -11 -10 -10 -10 -10 -9 -9 -9 -9 -9 -9
-5 -5 -6 -7 -7 -8 -9 -10 -10 -10 -10 -11 -11 -11 -11 -11 -12 -12 -13 -13 -13 -13 -13 -13 -13 -12 -12 -12 -13 -12 -12 -11 -10 -10 -10 -9 -9 -9 -8 -8 -8 -8 -8
-6 -6 -7 -7 -8 -9 -10 -10 -10 -10 -11 -11 -11 -11 -12 -12 -12 -13 -13 -13 -13 -13 -13 -13 -12 -12 -12 -12 -12 -12 -11 -10 -10 -9 -9 -9 -8 -8 -8 -8 -8 -8 -8
-6 -7 -7 -8 -9 -10 -10 -10 -10 -11 -11 -11 -11 -12 -12 -13 -13 -13 -13 -12 -12 -12 -12 -12 -11 -11 -11 -11 -11 -10 -10 -9 -9 -9 -8 -8 -7 -7 -7 -7 -7 -7 -7
-7 -8 -8 -9 -9 -10 -10 -10 -11 -11 -11 -11 -12 -12 -13 -13 -13 -12 -12 -12 -12 -11 -11 -11 -11 -10 -10 -10 -9 -9 -8 -8 -8 -8 -8 -7 -7 -7 -7 -7 -7 -7 -7
-8 -8 -9 -9 -10 -10 -10 -11 -11 -11 -11 -12 -12 -13 -13 -13 -12 -12 -12 -12 -11 -11 -11 -10 -10 -10 -9 -9 -8 -8 -8 -7 -7 -7 -7 -7 -7 -7 -7 -7 -7 -6 -6
-8 -9 -9 -10 -10 -10 -11 -11 -11 -11 -12 -12 -13 -13 -13 -12 -12 -12 -12 -12 -11 -11 -10 -10 -10 -9 -8 -8 -8 -7 -7 -7 -7 -6 -6 -6 -7 -7 -6 -6 -6 -6 -6
Wind_Speed
8 8 8 6 6 6 6 5 5 5 6 6 6 7 8 8 8 8 8 10 10 10 10 12 13 12 10 8 8 7 8 9 16 18 15 14 14 14 16 11 12 13 15
8 8 7 6 5 6 5 5 5 6 6 6 7 7 8 9 9 9 10 11 9 11 13 14 15 14 13 10 9 9 8 9 13 20 18 15 16 15 16 15 17 17 12
8 7 7 6 6 5 5 6 6 6 6 7 7 7 8 9 9 9 10 8 9 12 14 15 16 15 15 11 10 9 9 13 12 16 19 16 15 15 17 18 16 12 16
8 7 7 5 5 4 5 5 6 6 7 7 7 8 9 9 10 10 8 9 10 11 12 15 16 16 15 13 13 11 12 13 14 16 17 16 16 14 15 16 15 9 12
7 7 6 4 4 4 4 5 6 7 8 8 8 8 9 9 10 12 11 12 10 11 13 15 16 21 24 20 18 14 14 14 15 16 17 18 17 16 16 14 17 15 12
7 6 5 3 3 3 4 5 7 7 8 8 8 9 10 11 20 24 19 10 9 12 15 15 16 17 21 27 30 29 26 20 18 18 18 20 21 19 16 17 17 20 20
7 5 4 3 3 4 5 6 7 7 7 8 9 9 9 13 23 24 24 15 10 11 14 15 17 18 23 15 23 28 24 27 28 20 20 20 21 20 20 21 20 21 21
6 4 3 2 3 4 6 7 7 7 7 8 9 10 10 15 23 24 25 13 9 10 12 14 16 15 18 22 20 18 17 17 22 19 15 18 19 18 20 21 22 21 17
5 3 2 2 4 5 6 7 7 7 8 8 9 10 11 13 21 24 24 10 9 11 13 15 17 17 27 31 23 21 21 17 23 28 30 29 33 33 27 18 17 18 19
4 3 2 2 4 6 6 7 7 7 8 9 10 10 10 11 20 24 24 9 11 12 13 14 21 25 30 33 23 21 20 17 17 19 19 22 19 21 27 18 16 17 19
4 1 2 3 4 6 6 6 7 8 9 9 10 9 9 13 19 23 25 13 12 14 15 14 15 29 33 35 30 17 22 24 17 15 15 15 14 13 13 14 15 16 18
2 1 3 4 5 6 6 7 7 8 9 9 9 9 7 10 16 21 26 24 23 17 16 15 17 32 34 33 24 25 31 26 13 15 15 15 14 14 14 16 17 17 17
1 2 4 5 5 6 6 7 7 7 7 7 8 9 9 8 12 24 25 27 29 19 16 25 30 32 29 19 24 29 24 14 15 15 15 15 13 14 15 15 16 15 16
2 3 4 5 6 6 6 6 6 7 7 8 9 10 10 9 8 9 11 15 21 18 16 21 26 25 21 22 21 17 13 14 16 15 16 15 13 13 14 14 15 14 13
3 4 5 5 6 6 7 6 8 6 9 12 8 8 10 11 15 26 22 16 16 18 20 12 10 12 12 13 13 13 13 14 15 14 15 15 15 15 14 13 12 13 12
3 4 4 5 5 6 7 8 12 14 20 21 20 19 15 20 27 28 29 30 30 29 20 12 13 13 14 15 16 16 15 15 15 15 15 15 15 15 15 14 12 12 12
3 4 4 5 6 6 7 9 11 13 16 19 21 23 23 25 27 28 29 29 27 24 14 12 13 14 14 15 15 15 16 15 15 14 14 14 14 14 14 14 13 12 12
4 6 6 5 5 6 7 8 9 11 12 10 14 21 24 25 26 27 28 23 16 15 11 12 13 14 14 15 15 15 15 15 14 14 14 14 14 14 14 13 12 12 12
4 4 5 5 5 6 8 8 7 9 10 11 10 13 21 23 23 24 22 12 13 13 13 13 13 14 14 14 15 15 15 15 15 15 14 14 13 13 13 12 12 15 12
4 9 9 6 6 6 7 7 8 9 10 10 11 11 12 13 10 13 12 11 12 13 14 14 14 14 14 14 14 14 14 15 15 14 14 14 13 12 12 13 11 11 9
4 7 12 9 6 6 7 8 8 9 10 10 10 15 22 13 11 12 12 12 12 13 14 14 14 14 14 13 13 14 15 15 14 14 14 13 13 12 11 10 10 9 8
4 5 6 6 6 6 8 7 8 9 10 11 10 14 22 12 10 11 12 12 12 12 13 13 13 13 13 13 14 15 15 15 15 14 14 14 12 11 10 9 9 8 7
5 6 6 6 6 11 11 8 8 9 10 10 11 12 12 12 12 12 12 13 13 13 13 13 14 14 14 14 14 14 15 15 15 16 16 13 11 10 9 9 9 7 6
6 7 6 6 6 7 8 8 8 10 11 11 12 12 12 12 13 13 13 13 13 14 13 14 15 18 21 18 15 15 15 16 17 15 14 11 10 9 8 7 7 6 5
6 6 6 6 7 8 8 9 9 10 12 13 13 13 13 13 13 13 12 12 14 14 16 17 14 16 20 25 23 19 23 27 21 12 9 8 8 9 8 7 5 4 3
6 6 6 6 7 7 8 9 10 11 12 12 12 12 13 13 13 12 13 13 14 15 16 15 17 21 24 21 22 25 27 24 20 17 9 6 7 6 6 5 5 4 3
Wind_Direction
106 95 85 72 58 61 59 41 18 4 357 348 341 334 328 323 324 320 315 311 306 308 309 307 302 300 296 291 287 285 283 286 293 299 301 302 300 299 298 288 288 286 291
104 98 91 77 56 48 43 28 11 356 343 335 332 328 323 321 317 312 310 308 310 318 314 308 306 306 301 297 292 288 290 292 293 297 298 300 298 297 295 291 296 294 294
106 103 94 75 55 37 26 14 356 340 328 325 325 320 314 310 306 302 300 306 321 314 309 307 307 305 301 297 294 295 295 297 292 293 295 297 296 296 296 294 289 287 293
100 93 83 67 53 29 12 355 337 325 319 316 312 306 303 301 300 298 304 315 307 304 306 304 303 300 299 300 300 291 294 295 294 293 295 297 297 296 295 297 297 288 292
108 100 87 58 40 19 357 336 321 314 312 304 302 301 298 302 304 312 315 310 307 307 304 301 299 301 304 305 303 304 304 301 300 300 300 301 301 303 302 302 301 301 291
112 104 93 53 25 360 328 313 305 302 299 302 302 300 303 312 314 314 314 308 304 306 306 304 302 301 304 309 309 306 304 305 306 304 303 302 302 303 303 302 301 301 299
107 102 91 47 358 330 316 311 305 304 307 308 305 306 306 309 313 314 315 316 305 303 303 306 308 310 312 304 302 306 307 305 304 301 300 300 301 302 301 298 296 294 294
114 116 104 37 335 323 315 310 309 309 309 306 304 304 302 305 313 316 316 314 297 296 300 304 304 305 306 306 306 310 306 301 298 300 295 296 298 299 296 298 299 298 293
120 103 70 12 327 316 310 308 309 309 306 301 299 300 298 304 314 317 316 304 301 300 303 306 307 305 305 311 314 310 307 304 306 305 304 304 304 305 305 304 301 300 298
109 83 22 333 313 304 303 306 304 304 299 301 301 299 301 305 315 320 321 310 311 311 309 308 309 310 311 314 314 311 312 309 308 310 308 305 301 299 301 299 298 298 298
96 56 323 310 306 301 301 298 298 299 300 302 303 304 307 313 322 324 323 323 318 317 316 314 311 312 313 315 317 315 311 316 318 314 308 304 301 299 298 296 294 293 294
103 302 299 306 308 308 302 300 301 302 303 304 309 311 311 318 323 322 323 324 323 319 315 312 311 313 317 320 323 318 319 323 318 311 308 307 308 307 305 301 296 291 285
32 321 320 319 309 305 304 303 303 301 302 309 313 314 315 314 318 320 320 321 321 320 311 312 314 318 323 325 320 321 324 319 313 311 311 310 307 303 304 304 301 297 291
359 336 326 316 310 309 303 299 300 303 305 307 308 309 309 307 305 308 310 316 320 318 310 312 319 322 323 322 321 318 315 312 315 312 311 309 308 307 308 309 310 311 310
358 334 321 317 315 309 302 298 304 293 302 312 306 304 309 312 313 320 324 323 322 317 323 323 322 322 322 319 318 317 317 318 317 315 314 314 314 314 313 314 312 316 318
343 328 324 321 314 308 308 309 310 313 317 319 321 318 317 316 319 324 326 325 325 328 332 328 323 320 319 320 320 320 320 319 319 317 315 313 314 315 315 316 317 321 325
328 316 311 310 307 308 310 312 314 317 318 320 322 323 322 322 326 327 327 328 330 333 330 321 319 319 319 318 318 317 318 317 316 315 314 313 314 314 315 317 322 326 327
320 312 309 298 305 309 308 306 308 315 319 319 321 322 325 326 327 328 329 333 329 328 321 319 318 318 317 317 317 317 316 316 316 315 314 313 314 314 315 318 323 326 328
318 303 297 299 299 298 299 302 306 309 312 314 315 320 324 324 324 326 331 329 322 322 321 319 317 316 316 316 315 314 314 314 314 314 314 314 315 316 318 321 323 327 331
309 308 312 302 293 295 299 305 308 309 310 311 313 317 319 319 323 326 327 321 321 321 320 318 316 314 315 314 314 314 314 314 314 314 313 314 316 318 320 322 324 328 330
309 310 311 309 297 298 301 301 303 305 307 308 309 314 320 324 323 321 321 321 321 320 318 316 314 313 313 313 313 313 313 312 312 312 313 315 317 320 322 322 324 326 329
306 296 295 294 295 297 304 303 305 305 307 308 311 315 320 323 318 317 318 318 318 316 315 314 312 311 311 312 312 312 311 309 309 310 311 313 316 319 320 321 324 327 331
300 295 295 294 297 310 314 305 304 306 308 309 312 316 319 319 318 318 318 319 318 316 316 314 312 311 310 310 309 307 304 303 302 302 306 311 316 317 316 316 319 325 333
292 290 296 303 306 304 303 304 307 310 313 315 316 317 317 318 317 317 318 317 316 316 314 314 311 308 308 311 310 307 301 299 300 301 304 309 313 313 313 314 316 323 332
297 301 306 305 304 305 306 307 310 313 314 314 314 315 317 317 316 316 317 316 315 315 314 314 311 311 311 311 310 308 308 313 320 325 318 313 311 312 316 320 327 332 352
306 308 305 302 301 302 305 308 309 309 309 310 313 314 314 314 314 315 316 316 318 317 315 314 310 312 312 312 310 314 319 328 338 345 344 321 321 328 336 336 344 357 18
Height
1472 1474 1475 1475 1475 1475 1474 1472 1470 1468 1466 1463 1461 1458 1455 1451 1448 1443 1439 1434 1430 1425 1421 1417 1411 1407 1402 1398 1394 1389 1384 1379 1368 1356 1352 1347 1342 1338 1333 1330 1326 1321 1316
1470 1472 1473 1473 1473 1472 1471 1469 1467 1465 1463 1460 1458 1455 1451 1447 1443 1438 1433 1429 1424 1419 1414 1409 1404 1400 1395 1391 1386 1381 1376 1371 1365 1353 1344 1339 1334 1329 1324 1318 1315 1311 1307
1468 1470 1471 1471 1470 1469 1468 1466 1465 1462 1460 1457 1454 1451 1447 1442 1437 1433 1428 1424 1419 1414 1408 1403 1398 1393 1387 1383 1379 1373 1368 1363 1357 1349 1339 1333 1326 1321 1315 1308 1304 1299 1295
1466 1468 1468 1468 1468 1467 1465 1464 1462 1459 1457 1454 1450 1446 1442 1437 1432 1428 1423 1418 1412 1407 1401 1396 1391 1387 1382 1377 1371 1366 1361 1355 1349 1342 1333 1325 1319 1313 1307 1299 1291 1287 1283
1465 1466 1466 1466 1465 1464 1462 1460 1458 1456 1453 1449 1445 1441 1437 1432 1428 1423 1418 1412 1406 1399 1394 1389 1385 1381 1377 1372 1366 1360 1354 1348 1341 1334 1326 1318 1311 1304 1298 1291 1283 1276 1270
1463 1463 1464 1463 1462 1461 1459 1457 1455 1452 1448 1445 1440 1436 1432 1427 1423 1418 1413 1406 1400 1394 1388 1382 1378 1374 1370 1365 1360 1354 1349 1342 1335 1328 1319 1312 1304 1298 1291 1284 1276 1268 1256
1461 1461 1461 1460 1459 1458 1456 1454 1451 1448 1444 1440 1436 1431 1426 1421 1416 1412 1407 1401 1394 1389 1383 1377 1372 1368 1363 1356 1350 1345 1340 1335 1331 1323 1313 1305 1297 1290 1283 1274 1267 1260 1251
1459 1459 1458 1458 1457 1455 1453 1450 1447 1443 1439 1435 1430 1425 1420 1415 1411 1406 1401 1395 1389 1383 1378 1373 1367 1360 1355 1350 1342 1336 1330 1325 1320 1313 1306 1297 1290 1282 1276 1268 1259 1250 1242
1456 1456 1456 1455 1454 1452 1450 1447 1443 1439 1435 1430 1425 1420 1415 1410 1406 1401 1396 1390 1383 1377 1372 1367 1362 1355 1349 1343 1336 1328 1320 1314 1309 1303 1296 1289 1282 1275 1268 1260 1251 1243 1233
1454 1454 1454 1453 1451 1449 1446 1443 1439 1435 1430 1425 1420 1415 1410 1405 1401 1396 1392 1385 1378 1371 1365 1360 1355 1349 1343 1336 1329 1320 1312 1305 1298 1291 1284 1278 1271 1265 1259 1254 1246 1237 1227
1452 1452 1451 1450 1448 1446 1443 1439 1435 1430 1425 1420 1415 1410 1406 1401 1396 1392 1387 1382 1375 1367 1360 1353 1347 1342 1336 1329 1322 1315 1307 1300 1291 1284 1276 1268 1262 1256 1250 1244 1238 1231 1222
1450 1450 1449 1447 1445 1442 1439 1435 1431 1426 1421 1415 1410 1405 1401 1397 1392 1386 1382 1377 1371 1364 1355 1348 1341 1335 1329 1322 1315 1308 1302 1294 1286 1277 1270 1262 1255 1248 1241 1234 1228 1221 1215
1448 1447 1446 1445 1442 1439 1435 1431 1426 1422 1417 1411 1406 1400 1395 1391 1386 1382 1376 1371 1365 1358 1351 1343 1336 1329 1322 1315 1309 1303 1296 1288 1280 1273 1265 1257 1250 1242 1234 1227 1219 1213 1206
1445 1445 1443 1441 1438 1435 1432 1427 1423 1418 1413 1408 1402 1397 1391 1386 1381 1376 1370 1364 1358 1351 1343 1336 1330 1323 1317 1310 1303 1296 1290 1284 1277 1270 1261 1253 1245 1237 1229 1223 1215 1208 1200
1443 1442 1440 1438 1435 1431 1427 1424 1419 1415 1411 1406 1401 1395 1389 1383 1378 1374 1368 1360 1353 1346 1338 1330 1324 1317 1310 1304 1298 1291 1285 1279 1272 1265 1257 1248 1240 1233 1226 1219 1213 1206 1199
1441 1439 1437 1434 1431 1427 1422 1418 1414 1411 1407 1403 1398 1394 1387 1382 1376 1370 1363 1356 1349 1342 1335 1327 1321 1314 1308 1301 1294 1287 1281 1275 1268 1261 1253 1246 1238 1231 1223 1216 1211 1205 1199
1438 1436 1434 1430 1427 1422 1418 1412 1407 1403 1401 1397 1393 1389 1384 1378 1372 1365 1358 1351 1344 1338 1331 1324 1318 1312 1305 1299 1292 1285 1278 1271 1264 1257 1250 1243 1236 1229 1222 1216 1210 1204 1198
1435 1433 1430 1427 1423 1419 1414 1410 1405 1399 1394 1389 1387 1383 1378 1373 1367 1360 1354 1346 1338 1333 1328 1322 1315 1309 1302 1296 1289 1282 1275 1267 1260 1254 1247 1240 1234 1227 1221 1215 1209 1204 1198
1432 1429 1426 1423 1419 1415 1411 1406 1402 1398 1392 1387 1381 1377 1373 1367 1361 1356 1349 1343 1336 1330 1324 1318 1312 1305 1299 1292 1286 1279 1272 1265 1258 1251 1244 1238 1232 1226 1220 1215 1209 1204 1199
1428 1426 1422 1419 1415 1411 1407 1403 1399 1394 1389 1384 1379 1373 1367 1362 1355 1349 1344 1339 1333 1327 1321 1314 1308 1302 1295 1289 1282 1275 1269 1262 1255 1249 1242 1236 1231 1225 1220 1214 1209 1205 1201
1425 1422 1419 1415 1411 1407 1403 1399 1395 1391 1386 1381 1376 1371 1366 1360 1352 1346 1340 1335 1330 1323 1317 1311 1304 1298 1292 1285 1279 1272 1266 1259 1253 1247 1241 1235 1230 1225 1220 1215 1210 1206 1203
1421 1418 1414 1411 1407 1404 1400 1396 1392 1387 1383 1377 1371 1366 1361 1355 1349 1343 1337 1332 1326 1320 1314 1308 1301 1295 1289 1282 1276 1269 1263 1257 1251 1245 1240 1235 1230 1225 1220 1215 1211 1208 1205
1417 1413 1410 1407 1404 1400 1396 1392 1388 1383 1378 1373 1367 1361 1356 1351 1345 1339 1334 1328 1322 1316 1311 1305 1298 1291 1285 1279 1273 1268 1261 1255 1249 1244 1239 1234 1230 1225 1220 1216 1213 1210 1207
1413 1409 1406 1403 1400 1396 1392 1388 1383 1379 1374 1368 1363 1357 1352 1347 1341 1336 1330 1325 1319 1313 1308 1302 1295 1289 1282 1276 1270 1265 1259 1253 1248 1243 1239 1234 1230 1225 1221 1217 1214 1212 1210
1409 1406 1402 1399 1395 1391 1387 1383 1379 1374 1369 1364 1358 1354 1349 1343 1338 1332 1327 1322 1316 1310 1305 1299 1293 1286 1280 1274 1268 1262 1256 1252 1247 1243 1238 1234 1229 1225 1222 1218 1216 1214 1212
1405 1402 1398 1395 1391 1387 1383 1378 1374 1369 1364 1359 1355 1350 1345 1340 1335 1329 1324 1319 1313 1308 1302 1297 1291 1285 1278 1272 1266 1261 1256 1251 1246 1242 1237 1233 1230 1226 1223 1220 1218 1216 1215